031  
ASUS44 KFWD 221015  
RWRTX  
NORTH TEXAS HOURLY WEATHER ROUNDUP  
NATIONAL WEATHER SERVICE FORT WORTH TX  
500 AM CDT SUN APR 22 2018  
 
NOTE: "FAIR" INDICATES FEW OR NO CLOUDS BELOW 12,000 FEET WITH NO  
SIGNIFICANT WEATHER AND/OR S TO VISIBILITY
.  
 
TXZ118-119-221100-  
DALLAS/FORT WORTH METROPLEX  
 
CITY SKY/WX TMP DP RH WIND PRES REMARKS
 
DFW AIRPORT CLOUDY 53 48 83 NW12 30.04S  
DALLAS LOVE CLOUDY 54 47 77 N9 30.05S  
FTW MEACHAM CLOUDY 54 48 80 NW13G22 30.07R  
DAL-EXECUTIVE CLOUDY 53 47 79 N15G22 30.04S  
FTW-ALLIANCE CLOUDY 52 47 83 NW9 30.07R  
FTW-NAS-JRB CLOUDY 53 45 74 N15 30.08R  
FTW-SPINKS CLOUDY 52 46 81 N10 30.09R  
ARLINGTON CLOUDY 52 48 86 NW16 30.06S  
GRAND PRAIRIE CLOUDY 53 46 76 NW8G17 30.08R  
ADDISON CLOUDY 52 47 83 N8 30.07S  
MESQUITE CLOUDY 52 48 84 NW13G20 30.04S  
LANCASTER CLOUDY 53 47 80 N15 30.05S  

 
 
TXZ091>094-102>105-117-120-121-131>134-221100-  
NORTH CENTRAL TEXAS  
 
CITY SKY/WX TMP DP RH WIND PRES REMARKS
 
SHRMAN/DENISON CLOUDY 50 48 90 NW8 30.05S  
GAINESVILLE CLOUDY 50 46 85 NW13G18 30.09R  
BOWIE CLOUDY 49 44 84 N12G18 30.09R  
BRIDGEPORT CLOUDY 52 46 80 NW8G18 30.12R  
DECATUR CLOUDY 50 46 85 NW3 30.09R  
DENTON CLOUDY 51 48 89 NW15 30.06S  
MCKINNEY CLOUDY 52 49 89 NW10 30.04S  
BONHAM CLOUDY 50 48 92 NW9G16 30.03R  
GREENVILLE CLOUDY 55 52 88 NW6 30.02S  
ROCKWALL CLOUDY 52 49 90 MISG 30.04S  
TERRELL CLOUDY 53 48 83 NW9 30.03S  
WAXAHACHIE CLOUDY 52 49 92 NW13 30.05S  
CLEBURNE CLOUDY 52 48 87 N16 30.08S  
GRANBURY CLOUDY 53 47 79 NW9G18 30.11R  

 
 
TXZ083>090-098>101-113>116-127>130-139>142-154-155-221100-  
WESTERN NORTH TEXAS  
 
CITY SKY/WX TMP DP RH WIND PRES REMARKS
 
WICHITA FALLS CLOUDY 50 45 83 N12 30.12R  
WF-KICKAPOO CLOUDY 50 44 80 N12 30.15R  
VERNON FAIR 47 44 88 NW7 30.15R  
ABILENE CLOUDY 48 46 93 NW7 30.15R  
ABILENE-DYESS CLOUDY 49 43 78 N9 30.14S  
GRAHAM N/A 49 32 51 N7 30.11S  
BRECKENRIDGE CLOUDY 51 45 79 N8 30.13R  
CISCO CLOUDY 48 45 87 NW13 30.13R  
EASTLAND CLOUDY 48 44 88 N10 30.12R  
RANGER FAIR 46 44 93 N8 30.11R  
MINERAL WELLS CLOUDY 50 45 83 N14 30.08S  
STEPHENVILLE CLOUDY 50 45 81 N14G24 30.12R  
COMANCHE MOCLDY 47 47 100 NW7 30.12R  
COLEMAN FAIR 48 43 83 N10 30.13R  
BRADY FAIR 48 45 87 N12 30.12S  

 
 
TXZ143>147-156>162-174-175-221100-  
CENTRAL TEXAS  
 
CITY SKY/WX TMP DP RH WIND PRES REMARKS
 
WACO CLOUDY 52 47 83 N15 30.07R  
WACO-MCGREGOR CLOUDY 51 47 86 N10G18 30.08R  
HILLSBORO CLOUDY 52 49 90 NW17G23 30.04F  
CORSICANA CLOUDY 53 48 83 NW12G21 30.05S  
MEXIA CLOUDY 52 48 86 NW16G23 30.04R  
HEARNE FAIR 53 52 98 NW7 30.05R  
CAMERON FAIR 51 49 93 NW7 30.06R  
TEMPLE CLOUDY 52 50 93 NW14 30.08R  
KILLEEN MOCLDY 52 46 82 NW10 30.08R  
KILLEEN-SKYLRK MOCLDY 52 48 86 N13G18 30.08R  
FORT HOOD CLOUDY 52 50 93 N12 30.04R  
GATESVILLE CLOUDY 54 48 82 N9G16 30.10R  
HAMILTON CLOUDY 50 50 99 NW10 30.10R  
LAMPASAS FAIR 49 46 92 NW7 30.07S  

 
 
TXZ095>097-106>112-122>126-135>138-148>153-164>167-221100-  
EAST TEXAS  
 
CITY SKY/WX TMP DP RH WIND PRES REMARKS
 
PARIS CLOUDY 52 51 97 NW13 29.99S  
SULPHUR SPRNGS CLOUDY 55 53 95 NW10 30.03R  
MOUNT PLEASANT CLOUDY 55 55 98 W8 29.99R  
GILMER CLOUDY 55 55 99 NW3 29.98R  
MINEOLA CLOUDY 54 52 94 NW9G17 30.01R  
TYLER CLOUDY 55 54 96 NW15G21 29.99R  
LONGVIEW CLOUDY 58 58 100 NW8 29.95S  
MARSHALL CLOUDY 56 55 94 NW7 29.97R  
ATHENS CLOUDY 54 52 94 NW8 30.01R  
PALESTINE CLOUDY 55 54 96 NW8 30.01R  
JACKSONVILLE CLOUDY 56 56 100 NW5 30.00R  
HENDERSON CLOUDY 57 56 96 NW5 29.97S  
CENTER CLOUDY 63 62 96 NW6 29.93S  
NACOGDOCHES N/A 62 61 96 NW14 29.95R  
LUFKIN CLOUDY 63 62 97 NW10 29.93R  

 
 
SUPPLEMENTAL OBSERVATIONS (NWS FORT WORTH AREA)  
 
CITY SKY/WX TMP DP RH WIND PRES REMARKS
 
DENISON DAM N/A 52 48 87 N23 N/A  
CADDO GRASSLND N/A 52 50 93 NW6G14 N/A  
LBJ GRASSLAND N/A 50 45 81 NW7G15 N/A  
POSSUM KINGDOM N/A 48 45 87 NW7 N/A  
GRANBURY N/A 52 46 82 NW12 N/A  
COMANCHE N/A 48 45 87 NW9 N/A  
MCGREGOR N/A 52 46 82 N10G23 N/A  
TEMPLE N/A 54 48 82 NW17G26 N/A  
LAKE LIMESTONE N/A 54 50 87 N7G20 N/A  
ATHENS N/A 54 52 94 NW2G10 N/A  
PALESTINE N/A 55 54 94 NW8 N/A  

 
 
SUPPLEMENTAL OBSERVATIONS (NWS NORMAN AREA)  
 
CITY SKY/WX TMP DP RH WIND PRES REMARKS
 
GOODLETT N/A 47 43 87 W8 30.17R  
ODELL N/A 44 41 91 NW7 30.17R WCI 40  
CROWELL N/A 47 44 89 NW3 30.18R  
KNOX CITY N/A 51 41 70 N7 30.17R  
SEYMOUR N/A 47 43 88 NW7 30.17R  
MILLERS CREEK N/A 48 43 81 N7 N/A  

 
 
SUPPLEMENTAL OBSERVATIONS (NWS SAN ANGELO AREA)  
 
CITY SKY/WX TMP DP RH WIND PRES REMARKS
 
WEINERT N/A 49 42 76 N12 30.17R  
HASKELL N/A 50 42 74 N13 30.16S  
THROCKMORTON N/A 50 46 85 NW9 30.15S  
STAMFORD N/A 50 45 82 N5 30.17R  
CLYDE N/A 44 42 95 NW6 30.15S  
HAMBY N/A 48 45 87 NW3 N/A  
IVIE RESERVOIR N/A 50 45 81 N6G15 N/A  
COLORADO BEND N/A 48 45 87 NW6 N/A  

 
 
SUPPLEMENTAL OBSERVATIONS (NWS SHREVEPORT AREA)  
 
CITY SKY/WX TMP DP RH WIND PRES REMARKS
 
TEXARKANA N/A 57 55 94 W2 N/A  
LINDEN N/A 57 55 94 NW6 N/A  
CADDO LAKE N/A 57 55 94 NW2G14 N/A  
LUFKIN N/A 63 59 88 MISG N/A  
N SABINE NF N/A 64 63 94 MISG N/A  

 
 
SUPPLEMENTAL OBSERVATIONS ARE A COLLECTION OF AUTOMATED INSTRUMENTS  
THAT ARE MAINTAINED BY A VARIETY OF FEDERAL AND STATE AGENCIES.  
CERTAIN ELEMENTS...SUCH AS HUMIDITY VALUES AND SUSTAINED WIND  
SPEEDS...MAY BE APPROXIMATED.  
 
 
 
CLICK HERE TO GO TO PREVIOUS BULLETINS.

The Nexlab TX Page Main Text Page